Regional Weather Roundup
Issued by NWS

Home | Current Version | Previous Version | Graphics & Text | Print | Product List | Glossary On
Versions: 1 2 3 4 5 6 7 8 9 10 11 12 13 14 15 16 17 18 19 20 21 22 23 24 25 26 27 28 29 30 31 32 33 34 35 36 37 38 39 40 41 42 43 44 45 46 47 48 49 50
032
ASUS43 KFSD 131502
RWRSD

WEATHER ROUNDUP FOR SOUTH DAKOTA
NATIONAL WEATHER SERVICE SIOUX FALLS SD
900 AM CST SAT FEB 13 2016

NOTE: "FAIR" INDICATES FEW OR NO CLOUDS BELOW 12,000 FEET WITH NO
SIGNIFICANT WEATHER AND/OR OBSTRUCTIONS TO VISIBILITY.


SDZ001>005-009-010-012>017-131600-
NORTHWEST AND NORTH CENTRAL SOUTH DAKOTA

CITY           SKY/WX    TMP DP  RH WIND       PRES   REMARKS
BUFFALO          N/A     20  18  92 SE13      29.92F WCI   7
FAITH            N/A     15  11  83 SE20G28   30.05F WCI  -2
MOBRIDGE       CLOUDY    11   3  70 SE18      30.21F WCI  -7
$$

SDZ012>016-024>037-041>051-057-063-072>074-131600-
SOUTHWEST AND SOUTH CENTRAL SOUTH DAKOTA

CITY           SKY/WX    TMP DP  RH WIND       PRES   REMARKS
RAPID CTY ARPT CLOUDY    31  29  92 SE9       29.99F WCI  23
PIERRE         CLOUDY    16  11  80 SE18      30.22F WCI   0
CUSTER         CLOUDY    32  28  85 CALM      29.97S
ELLSWORTH AFB  CLOUDY    32  31  96 S14       29.97  WCI  22
PHILIP         CLOUDY    27  23  85 SE12      30.10F WCI  17
PINE RIDGE     CLOUDY    34  29  82 S15G23    30.04F WCI  24
WINNER         CLOUDY    21  13  71 S20G29    30.25F WCI   6
$$

SDZ004>011-016>023-039-040-131600-
NORTHEAST SOUTH DAKOTA

CITY           SKY/WX    TMP DP  RH WIND       PRES   REMARKS
ABERDEEN       CLOUDY     8  -5  55 SE20      30.41F WCI -11
WATERTOWN      CLOUDY     2  -9  60 SE18      30.42F WCI -19
BROOKINGS      CLOUDY     1  -8  66 SE15      30.47F WCI -18
SISSETON         N/A     -1  -7  75 S15       30.51F WCI -21
$$

SDZ017-020-022-023-036>040-048>070-131600-
SOUTHEAST SOUTH DAKOTA

CITY           SKY/WX    TMP DP  RH WIND       PRES   REMARKS
SIOUX FALLS    CLOUDY     2  -7  66 SE13      30.51F WCI -15
HURON          CLOUDY     8  -1  66 SE18G25   30.43F WCI -11
MITCHELL       CLOUDY     8   0  69 SE18      30.46F WCI -11
YANKTON        CLOUDY     9   0  66 SE13      30.51F WCI  -7
$$

ABBREVIATIONS USED IN REMARKS
   TC - TEMPERATURE IN CELSIUS
  WCI - WIND CHILL INDEX
   HX - HEAT INDEX
  VSB - VISIBILITY





USA.gov is the U.S. government's official web portal to all federal, state and local government web resources and services.